Погода в Аракрусе

Бразилия     19°49′41″S   40°16′11″W
темп.,
°C
ветер,
м/с
пор.,
м/с
влажн.,
%
обл.,
%
осадки,
мм/ч
давл.,
гПа
погр.,
м
27 февраля, сб
сб2700:00+22з1193100 0.0 101523
03:00+22з129394 0.0 101324
06:00+22з1191100 0.0 101425
09:00+25юз1187100 0.6 101699
12:00+25юв2389100 3.5 1016246
15:00+27св248296 7.3 1013814
18:00+24юв239290 1.1 101485
21:00+22ююз119795 1.2 101523
28 февраля, вс
вс2800:00+22ююз1196100 2.0 101535
03:00+21юз1197100 2.2 101426
06:00+21юз129789 0.3 101545
09:00+25юв248495 1.8 1015731
12:00+26вюв238566 2.3 1015351
15:00+28вюв346770 2.8 10131129
18:00+24вюв258896 0.0 1013159
21:00+22вюв129698 0.3 101435
1 марта, пн
пн100:00+22юз1196100 0.2 101423
03:00+21ююз1196100 0.9 101339
06:00+21ююз129683 0.6 101453
09:00+26вюв138151 2.2 1015663
12:00+30св235589 0.0 10141556
15:00+28вюв346794 0.3 10131070
18:00+24юв2385100 0.3 101393
21:00+22ююз0191100 0.3 101423
2 марта, вт
вт200:00+21з019588 0.1 101523
03:00+21з119582 0.2 101423
06:00+21зюз119584 0.1 101524
09:00+27зюз117592 0.4 1016662
12:00+27в227469 0.8 1016762
15:00+28в347040 2.8 10141023
18:00+24ююв128759 0.9 101431
21:00+22вюв019451 0.9 101623
3 марта, ср
ср300:00+21зсз11960 0.0 101624
03:00+21зсз12974 0.0 101525
06:00+21зсз12963 0.0 101733
09:00+27сз23722 0.0 1018712
12:00+30сз22560 0.0 10171390
15:00+27всв248024 1.9 1015428
18:00+24в269284 2.9 1014192
21:00+22з119659 3.2 101623